Radiation Dose measured at exhaust stack monitor of Fukushima Daiichi Nuclear Power Station
Date,Time,Unit 5 6 shared exhaust cylinders,Wind Direction,Wind Velocity(m/s)
2021/12/04,00:00,4.1,northwest,5.0
2021/12/04,00:10,3.9,northwest,5.6
2021/12/04,00:20,3.7,west-northwest,4.9
2021/12/04,00:30,3.9,west-northwest,6.8
2021/12/04,00:40,3.9,northwest,7.6
2021/12/04,00:50,4.0,west-northwest,9.2
2021/12/04,01:00,3.9,northwest,7.9
2021/12/04,01:10,4.0,northwest,5.1
2021/12/04,01:20,4.1,northwest,5.1
2021/12/04,01:30,3.9,northwest,6.4
2021/12/04,01:40,3.9,northwest,6.0
2021/12/04,01:50,4.0,west-northwest,5.3
2021/12/04,02:00,3.9,northwest,3.1
2021/12/04,02:10,4.1,northwest,3.7
2021/12/04,02:20,4.0,northwest,4.5
2021/12/04,02:30,4.1,northwest,4.5
2021/12/04,02:40,4.0,northwest,5.2
2021/12/04,02:50,3.9,northwest,4.8
2021/12/04,03:00,4.0,northwest,5.5
2021/12/04,03:10,4.0,west-northwest,7.2
2021/12/04,03:20,3.9,west-northwest,5.0
2021/12/04,03:30,4.0,northwest,4.9
2021/12/04,03:40,4.1,northwest,6.1
2021/12/04,03:50,4.1,northwest,6.6
2021/12/04,04:00,4.0,northwest,6.6
2021/12/04,04:10,4.2,northwest,7.2
2021/12/04,04:20,3.9,west-northwest,5.5
2021/12/04,04:30,3.9,west-northwest,3.0
2021/12/04,04:40,4.1,northwest,3.4
2021/12/04,04:50,4.2,west-northwest,3.1
2021/12/04,05:00,3.8,west-northwest,4.4
2021/12/04,05:10,3.9,northwest,2.2
2021/12/04,05:20,3.8,north-northeast,2.6
2021/12/04,05:30,3.7,north,2.9
2021/12/04,05:40,3.9,north,3.0
2021/12/04,05:50,3.9,north-northwest,2.8
2021/12/04,06:00,4.1,north-northwest,4.0
2021/12/04,06:10,3.9,north-northwest,4.5
2021/12/04,06:20,3.9,northwest,5.0
2021/12/04,06:30,4.0,northwest,4.7
2021/12/04,06:40,3.9,northwest,5.4
2021/12/04,06:50,4.0,northwest,5.9
2021/12/04,07:00,4.0,northwest,3.7
2021/12/04,07:10,4.0,northwest,3.2
2021/12/04,07:20,4.1,northwest,5.2
2021/12/04,07:30,4.1,northwest,5.5
2021/12/04,07:40,3.9,north-northwest,6.3
2021/12/04,07:50,3.9,north-northwest,5.7
2021/12/04,08:00,4.0,north,5.4
2021/12/04,08:10,4.0,north-northwest,5.6
2021/12/04,08:20,4.1,north-northwest,6.6
2021/12/04,08:30,3.8,north-northwest,6.2
2021/12/04,08:40,4.0,north-northwest,6.6
2021/12/04,08:50,4.0,north-northwest,5.9
2021/12/04,09:00,4.1,north-northwest,5.3
2021/12/04,09:10,3.9,north-northwest,4.6
2021/12/04,09:20,4.0,north-northwest,4.8
2021/12/04,09:30,3.8,north,4.2
2021/12/04,09:40,4.0,north,4.2
2021/12/04,09:50,3.9,north-northeast,3.5
2021/12/04,10:00,4.1,north-northeast,3.7
2021/12/04,10:10,3.9,north-northeast,3.0
2021/12/04,10:20,4.0,north-northeast,3.9
2021/12/04,10:30,4.0,north-northeast,4.8
2021/12/04,10:40,3.9,north-northeast,3.8
2021/12/04,10:50,3.9,northeast,3.7
2021/12/04,11:00,3.9,northeast,3.0
2021/12/04,11:10,3.9,north-northeast,2.6
2021/12/04,11:20,4.1,northeast,3.3
2021/12/04,11:30,3.9,east,2.9
2021/12/04,11:40,4.0,east,2.2
2021/12/04,11:50,3.9,east,2.0
2021/12/04,12:00,3.8,east,2.5
2021/12/04,12:10,3.8,east,2.9
2021/12/04,12:20,3.8,east-southeast,2.2
2021/12/04,12:30,4.0,east,1.2
2021/12/04,12:40,3.9,east-southeast,2.3
2021/12/04,12:50,3.8,southeast,2.5
2021/12/04,13:00,3.9,southeast,3.2
2021/12/04,13:10,3.8,southeast,4.2
2021/12/04,13:20,3.9,southeast,3.3
2021/12/04,13:30,4.0,south-southeast,2.8
2021/12/04,13:40,3.8,southeast,2.3
2021/12/04,13:50,4.0,south-southeast,3.1
2021/12/04,14:00,3.9,south,2.0
2021/12/04,14:10,4.0,south-southeast,2.5
2021/12/04,14:20,3.9,south-southeast,2.8
2021/12/04,14:30,3.9,southeast,2.3
2021/12/04,14:40,4.0,south,1.2
2021/12/04,14:50,3.8,south-southwest,0.9
2021/12/04,15:00,3.9,-,CALM
2021/12/04,15:10,3.9,west-northwest,1.7
2021/12/04,15:20,4.0,west,3.4
2021/12/04,15:30,4.0,west-southwest,2.2
2021/12/04,15:40,4.0,southwest,3.5
2021/12/04,15:50,4.0,west,2.0
2021/12/04,16:00,3.9,west,3.1
2021/12/04,16:10,4.0,southwest,4.9
2021/12/04,16:20,4.1,west-southwest,3.3
2021/12/04,16:30,4.1,west-southwest,3.6
2021/12/04,16:40,3.9,west-southwest,2.6
2021/12/04,16:50,4.1,west-southwest,2.6
2021/12/04,17:00,4.0,west-southwest,2.9
2021/12/04,17:10,4.1,west,3.6
2021/12/04,17:20,4.0,west,6.8
2021/12/04,17:30,3.8,west,10.5
2021/12/04,17:40,4.0,west,9.2
2021/12/04,17:50,3.8,west,7.1
2021/12/04,18:00,3.9,west,7.8
2021/12/04,18:10,3.8,west,9.9
2021/12/04,18:20,4.1,west-southwest,6.0
2021/12/04,18:30,3.9,west,7.2
2021/12/04,18:40,3.8,west,7.6
2021/12/04,18:50,3.8,west,9.0
2021/12/04,19:00,4.0,west,7.9
2021/12/04,19:10,4.0,west,8.1
2021/12/04,19:20,3.9,west-southwest,7.1
2021/12/04,19:30,4.0,west,9.9
2021/12/04,19:40,4.2,west,8.5
2021/12/04,19:50,4.0,west,8.6
2021/12/04,20:00,4.0,west-northwest,11.1
2021/12/04,20:10,3.9,west-northwest,8.3
2021/12/04,20:20,3.9,northwest,5.7
2021/12/04,20:30,3.9,northwest,4.0
2021/12/04,20:40,4.0,northwest,4.7
2021/12/04,20:50,3.9,northwest,3.8
2021/12/04,21:00,4.0,west-northwest,2.6
2021/12/04,21:10,3.9,west-northwest,6.7
2021/12/04,21:20,3.9,west-northwest,8.1
2021/12/04,21:30,4.0,west-northwest,7.7
2021/12/04,21:40,4.0,west-northwest,9.6
2021/12/04,21:50,4.1,west-northwest,10.2
2021/12/04,22:00,3.9,west-northwest,8.6
2021/12/04,22:10,3.9,northwest,9.0
2021/12/04,22:20,3.8,west-northwest,6.1
2021/12/04,22:30,3.9,northwest,5.2
2021/12/04,22:40,3.9,northwest,3.7
2021/12/04,22:50,3.9,northwest,2.8
2021/12/04,23:00,4.2,northwest,1.9
2021/12/04,23:10,3.9,northwest,3.8
2021/12/04,23:20,3.8,northwest,4.7
2021/12/04,23:30,3.9,northwest,4.9
2021/12/04,23:40,3.9,northwest,4.8
2021/12/04,23:50,4.0,northwest,6.1
